Location: Lombard
(41.8800°N, 88.0080°W)
Time: 00:28:07
(UTC-05:00)

Transit 2A - Pass Details

Date: 10 February 2023
Orbit: 591 x 964 km, 66.7° (Epoch: 20 March)

Event Time Altitude Azimuth Distance (km) Brightness Sun altitude
Rises 16:28:06 0° 250° (WSW) 3,048 11.5 7.8°
Reaches altitude 10° 16:30:47 10° 265° (W) 2,198 10.0 7.4°
Maximum altitude 16:34:44 23° 317° (NW) 1,592 8.0 6.7°
Drops below altitude 10° 16:39:02 10° 9° (N) 2,406 8.3 6.0°
Sets 16:42:08 0° 23° (NNE) 3,415 8.9 5.5°
